Location: Strawberry
(45.6646°N, 111.9596°W)
Time: 22:30:59
(UTC+00:00)

Explorer 11/Cluster Stage 4 - Pass Details

Date: 14 October 2022
Orbit: 466 x 1248 km, 28.8° (Epoch: 28 November)

Event Time Altitude Azimuth Distance (km) Brightness Sun altitude
Rises 14:52:19 0° 226° (SW) 3,531 9.7 10.7°
Reaches altitude 10° 14:55:39 10° 208° (SSW) 2,738 9.4 11.2°
Maximum altitude 15:00:01 18° 168° (SSE) 2,362 9.7 11.9°
Drops below altitude 10° 15:04:48 10° 129° (SE) 3,059 11.8 12.6°
Sets 15:08:49 0° 112° (ESE) 4,112 12.3 13.3°
